sat.trackr.live / text

‹ back to catalog

STARLINK-33635

NORAD 63065 · 2025-035P

PAYLOAD ACTIVE UNKNOWN

§ Identity

Operator
Country
US
Launch date
2025-02-21
Launch site
AFETR
Launch vehicle
Mass (kg)
RCS (m²)

Purposes: comms

External: N2YO · Heavens-Above · Gunter

§ Orbital elements

Epoch: 2026-09-20T21:23:52.018656Z

Period
94.27 min
Inclination
43.0018°
Eccentricity
0.0001010
Mean motion
15.27599104 rev/d
Perigee alt
482.3 km
Apogee alt
483.7 km
Semi-major
6,861.1 km
B*
2.9654e-4
RAAN
124.6501°
Arg perigee
235.6345°
Mean anomaly
124.4412°
Rev number
8,958

§ Raw data

STARLINK-336351 63065U 25035P   26263.89157429  .00007912  00000+0  29654-3 0  99962 63065  43.0018 124.6501 0001010 235.6345 124.4412 15.27599104 89588

JSON: /api/v1/satellites/63065 · /tle

For live sub-satellite position, see the globe view (requires WebGL).

§ Visibility from observer

Set your observer location to see the next 7 days of passes ≥ 10°. The values pass through the URL so the page stays shareable.

No JS? Fill the form by hand. The geolocation button needs JavaScript.